Location: Observatoire de l'Aigle
(47.0607°N, 71.3152°W)
Time: 09:35:11
(UTC-04:00)

Amateur Radio Satellites - All Passes

Search period start: 18 April 2014 09:05
Search period end: 19 April 2014 09:05
Location: Observatoire de l'Aigle, 47.0607°N, 71.3152°W

Satellite Date Start Highest point End Downlink Frequencies (MHz)
Time Altitude Azimuth
HO-68 18 Apr 09:05:05 09:11:10 29° 93° (E) 09:17:12 435.675 MHz FM
PCSat 18 Apr 09:12:08 09:17:23 47° 49° (NE) 09:22:36 145.825 MHz
Oscar 11 18 Apr 09:19:53 09:21:22 12° 88° (E) 09:22:52 145.825 FM, Beacon 2401.500 USB
JAS-2 18 Apr 09:21:50 09:26:15 28° 296° (WNW) 09:30:55 435.800 - 435.900 CW/SSB, 435.910 FM
KITSAT 1 18 Apr 09:43:09 09:49:51 27° 25° (NNE) 09:56:31 435.175 FM
Sapphire 18 Apr 10:10:22 10:15:48 74° 240° (WSW) 10:21:11 437.095 MHz 1200 baud AX-25 AFSK
FUNcube-1 18 Apr 10:40:07 10:43:40 26° 95° (E) 10:47:16 145.950 - 145.970 MHz USB
Saudisat 1A 18 Apr 10:45:13 10:48:21 19° 112° (ESE) 10:51:29 436.775 MHz
HO-68 18 Apr 10:52:15 10:59:20 64° 293° (WNW) 11:06:24 435.675 MHz FM
Oscar 11 18 Apr 10:53:46 10:58:08 79° 285° (WNW) 11:02:30 145.825 FM, Beacon 2401.500 USB
PCSat 18 Apr 10:55:53 11:00:39 32° 249° (WSW) 11:05:23 145.825 MHz
RS-15 18 Apr 11:15:08 11:24:43 32° 348° (NNW) 11:34:16 29.354 - 29.394 USB, Beacon 29.352 USB
Oscar 19 18 Apr 11:32:14 11:32:40 10° 51° (NE) 11:33:05 437.125 CW, 437.150 USB
Oscar 16 18 Apr 11:38:25 11:40:32 13° 54° (NE) 11:42:39 437.025 USB, Beacon 2401.1428
KITSAT 1 18 Apr 11:38:40 11:46:48 70° 51° (NE) 11:54:51 435.175 FM
Sapphire 18 Apr 11:56:32 11:58:16 12° 258° (WSW) 12:00:00 437.095 MHz 1200 baud AX-25 AFSK
Uribyol 2 18 Apr 12:10:56 12:13:20 13° 54° (NE) 12:15:45 436.500 FM
FUNcube-1 18 Apr 12:16:21 12:20:09 33° 292° (WNW) 12:24:01 145.950 - 145.970 MHz USB
Saudisat 1A 18 Apr 12:23:07 12:27:33 62° 311° (NW) 12:32:00 436.775 MHz
Oscar 11 18 Apr 12:32:45 12:33:35 11° 304° (WNW) 12:34:25 145.825 FM, Beacon 2401.500 USB
HO-68 18 Apr 12:41:41 12:45:44 16° 314° (NW) 12:49:48 435.675 MHz FM
AO-27 18 Apr 12:48:15 12:52:27 26° 62° (ENE) 12:56:40 436.795 MHz FM
ITAMSAT 1 18 Apr 12:58:57 13:03:26 30° 64° (ENE) 13:07:54 435.822 SSB
Oscar 19 18 Apr 13:05:55 13:10:57 59° 71° (ENE) 13:16:02 437.125 CW, 437.150 USB
Oscar 16 18 Apr 13:13:53 13:19:00 73° 73° (ENE) 13:24:10 437.025 USB, Beacon 2401.1428
JAS-1B 18 Apr 13:16:57 13:19:00 11° 48° (NE) 13:20:58 435.800 - 435.900 CW/SSB
AO-Echo 18 Apr 13:18:19 13:23:01 35° 66° (ENE) 13:27:38 ?
TMSAT-1 18 Apr 13:24:25 13:27:02 14° 54° (NE) 13:29:40 436.925 FM
RS-15 18 Apr 13:31:00 13:40:57 37° 23° (NNE) 13:50:57 29.354 - 29.394 USB, Beacon 29.352 USB
KITSAT 1 18 Apr 13:34:45 13:41:38 32° 252° (WSW) 13:48:29 435.175 FM
Uribyol 2 18 Apr 13:46:50 13:52:00 79° 73° (ENE) 13:57:11 436.500 FM
Saudisat 1A 18 Apr 14:05:19 14:08:02 16° 332° (NNW) 14:10:45 436.775 MHz
AO-7 18 Apr 14:09:02 14:15:03 23° 46° (NE) 14:21:05 29.400 - 29.500 MHz
Gurwin Techsat 1B 18 Apr 14:12:14 14:17:13 43° 67° (ENE) 14:22:14 435.225 FM
OPAL 18 Apr 14:20:53 14:23:48 15° 91° (E) 14:26:41 ?
AO-27 18 Apr 14:26:40 14:31:42 50° 260° (W) 14:36:46 436.795 MHz FM
ITAMSAT 1 18 Apr 14:37:55 14:42:48 41° 262° (W) 14:47:42 435.822 SSB
Oscar 19 18 Apr 14:46:55 14:50:42 20° 269° (W) 14:54:30 437.125 CW, 437.150 USB
SO-50 18 Apr 14:48:56 14:50:29 12° 108° (ESE) 14:52:02 436.795 FM
Oscar 16 18 Apr 14:55:47 14:58:56 16° 271° (W) 15:02:06 437.025 USB, Beacon 2401.1428
AO-Echo 18 Apr 14:56:59 15:01:46 35° 264° (W) 15:06:28 ?
JAS-1B 18 Apr 15:00:47 15:08:24 52° 68° (ENE) 15:14:49 435.800 - 435.900 CW/SSB
TMSAT-1 18 Apr 15:00:51 15:06:08 79° 74° (ENE) 15:11:27 436.925 FM
ISS 18 Apr 15:04:20 15:05:33 12° 133° (SE) 15:06:46 145.800 FM
Uosat F 18 Apr 15:14:10 15:18:54 43° 68° (ENE) 15:23:39 435.120 FM
Uribyol 2 18 Apr 15:29:10 15:32:06 15° 271° (W) 15:35:02 436.500 FM
RS-15 18 Apr 15:44:03 15:55:04 83° 52° (NE) 16:06:17 29.354 - 29.394 USB, Beacon 29.352 USB
Gurwin Techsat 1B 18 Apr 15:52:45 15:57:20 29° 266° (W) 16:01:57 435.225 FM
OPAL 18 Apr 15:58:04 16:03:19 83° 289° (WNW) 16:08:32 ?
AO-7 18 Apr 15:58:25 16:06:41 80° 68° (ENE) 16:15:00 29.400 - 29.500 MHz
SO-50 18 Apr 16:25:50 16:30:19 86° 126° (SE) 16:34:52 436.795 FM
ISS 18 Apr 16:38:25 16:41:45 65° 150° (SSE) 16:45:05 145.800 FM
TMSAT-1 18 Apr 16:43:38 16:46:42 15° 272° (W) 16:49:47 436.925 FM
JAS-1B 18 Apr 16:51:54 16:59:10 36° 263° (W) 17:05:25 435.800 - 435.900 CW/SSB
Uosat F 18 Apr 16:53:38 16:57:52 27° 266° (W) 17:02:06 435.120 FM
Hamsat 18 Apr 17:08:35 17:11:54 23° 65° (ENE) 17:15:15 145.90 MHz
UOSAT-12 18 Apr 17:16:14 17:19:31 20° 112° (ESE) 17:22:52 437.025 FM, 437.400 FM
Saudisat 1A 18 Apr 17:29:31 17:31:18 12° 22° (NNE) 17:33:05 436.775 MHz
OPAL 18 Apr 17:38:34 17:41:26 15° 307° (NW) 17:44:17 ?
JAS-2 18 Apr 17:52:37 17:57:23 28° 64° (ENE) 18:01:52 435.800 - 435.900 CW/SSB, 435.910 FM
AO-7 18 Apr 17:53:49 18:00:20 25° 268° (W) 18:06:55 29.400 - 29.500 MHz
RS-15 18 Apr 17:57:17 18:06:16 31° 255° (WSW) 18:15:27 29.354 - 29.394 USB, Beacon 29.352 USB
SO-50 18 Apr 18:08:08 18:11:30 20° 327° (NNW) 18:14:53 436.795 FM
ISS 18 Apr 18:15:26 18:18:39 41° 349° (N) 18:21:52 145.800 FM
STRAND 1 18 Apr 18:34:59 18:38:58 23° 92° (E) 18:42:55 ?
Hamsat 18 Apr 18:43:46 18:47:41 38° 263° (W) 18:51:41 145.90 MHz
UOSAT-12 18 Apr 18:54:42 18:59:14 62° 311° (NW) 19:03:54 437.025 FM, 437.400 FM
Saudisat 1A 18 Apr 19:07:55 19:12:07 40° 44° (NE) 19:16:16 436.775 MHz
SO-67 18 Apr 19:13:41 19:17:11 84° 256° (WSW) 19:20:43 435.3500 MHz FM
JAS-2 18 Apr 19:36:47 19:42:22 46° 261° (W) 19:47:31 435.800 - 435.900 CW/SSB, 435.910 FM
HO-68 18 Apr 19:37:13 19:43:18 32° 57° (ENE) 19:49:25 435.675 MHz FM
ISS 18 Apr 19:52:38 19:55:51 40° 10° (N) 19:59:03 145.800 FM
STRAND 1 18 Apr 20:13:31 20:18:28 52° 291° (WNW) 20:23:23 ?
Oscar 11 18 Apr 20:17:52 20:20:17 15° 60° (ENE) 20:22:43 145.825 FM, Beacon 2401.500 USB
UOSAT-12 18 Apr 20:37:22 20:40:20 16° 333° (NNW) 20:43:20 437.025 FM, 437.400 FM
Saudisat 1A 18 Apr 20:47:45 20:51:37 30° 243° (WSW) 20:55:27 436.775 MHz
HO-68 18 Apr 21:23:33 21:30:36 63° 257° (WSW) 21:37:43 435.675 MHz FM
ISS 18 Apr 21:29:25 21:32:47 71° 209° (SSW) 21:36:07 145.800 FM
SO-50 18 Apr 21:35:18 21:36:40 11° 18° (NNE) 21:38:01 436.795 FM
FUNcube-1 18 Apr 21:39:54 21:43:34 30° 68° (ENE) 21:47:14 145.950 - 145.970 MHz USB
Oscar 11 18 Apr 21:51:41 21:55:58 69° 258° (WSW) 22:00:18 145.825 FM, Beacon 2401.500 USB
MaSat-1 18 Apr 22:11:51 22:14:41 86° 294° (WNW) 22:17:16 437.345 MHz
ISS 18 Apr 23:07:27 23:09:01 13° 226° (SW) 23:10:35 145.800 FM
SO-50 18 Apr 23:14:31 23:18:40 32° 41° (NE) 23:22:52 436.795 FM
FUNcube-1 18 Apr 23:16:24 23:20:00 27° 265° (W) 23:23:36 145.950 - 145.970 MHz USB
HO-68 18 Apr 23:17:43 23:19:45 11° 277° (W) 23:21:48 435.675 MHz FM
PCSat 18 Apr 23:58:20 00:02:19 21° 107° (ESE) 00:06:19 145.825 MHz
UOSAT-12 19 Apr 00:02:21 00:04:48 14° 23° (NNE) 00:07:14 437.025 FM, 437.400 FM
SO-50 19 Apr 00:54:58 00:59:24 45° 240° (WSW) 01:03:52 436.795 FM
Sapphire 19 Apr 00:54:59 01:00:15 56° 117° (ESE) 01:05:33 437.095 MHz 1200 baud AX-25 AFSK
Oscar 19 19 Apr 01:15:36 01:18:53 17° 89° (E) 01:22:09 437.125 CW, 437.150 USB
Oscar 16 19 Apr 01:23:19 01:27:12 21° 91° (E) 01:31:03 437.025 USB, Beacon 2401.1428
OPAL 19 Apr 01:37:59 01:42:35 37° 63° (ENE) 01:47:15 ?
PCSat 19 Apr 01:39:51 01:45:14 67° 306° (NW) 01:50:40 145.825 MHz
UOSAT-12 19 Apr 01:41:36 01:46:09 44° 45° (NE) 01:50:40 437.025 FM, 437.400 FM
Uribyol 2 19 Apr 01:57:14 02:01:13 22° 92° (E) 02:05:12 436.500 FM
KITSAT 1 19 Apr 02:11:18 02:18:03 30° 107° (ESE) 02:24:49 435.175 FM
Gurwin Techsat 1B 19 Apr 02:26:59 02:29:27 13° 87° (E) 02:31:54 435.225 FM
Oscar 10/S400 19 Apr 02:34:32 02:53:32 27° 129° (SE) 03:56:06 145.825 - 145.975 CW/USB, Beacon 145.810 USB
AO-27 19 Apr 02:36:29 02:41:28 46° 99° (E) 02:46:26 436.795 MHz FM
Sapphire 19 Apr 02:39:13 02:43:59 31° 318° (NW) 02:48:47 437.095 MHz 1200 baud AX-25 AFSK
ITAMSAT 1 19 Apr 02:47:18 02:52:24 56° 101° (E) 02:57:28 435.822 SSB
Oscar 19 19 Apr 02:53:35 02:58:47 73° 287° (WNW) 03:03:58 437.125 CW, 437.150 USB
AO-Echo 19 Apr 03:00:50 03:05:37 61° 101° (E) 03:10:17 ?
Oscar 16 19 Apr 03:01:50 03:06:57 59° 289° (WNW) 03:12:02 437.025 USB, Beacon 2401.1428
TMSAT-1 19 Apr 03:14:11 03:18:32 25° 93° (E) 03:22:50 436.925 FM
OPAL 19 Apr 03:16:59 03:21:30 33° 262° (W) 03:26:06 ?
UOSAT-12 19 Apr 03:22:03 03:26:10 30° 244° (WSW) 03:30:15 437.025 FM, 437.400 FM
PCSat 19 Apr 03:26:04 03:29:42 18° 329° (NNW) 03:33:21 145.825 MHz
Uribyol 2 19 Apr 03:35:59 03:41:03 55° 290° (WNW) 03:46:05 436.500 FM
AO-7 19 Apr 03:57:39 04:03:39 21° 89° (E) 04:09:36 29.400 - 29.500 MHz
KITSAT 1 19 Apr 04:04:41 04:12:48 74° 308° (NW) 04:20:58 435.175 FM
Gurwin Techsat 1B 19 Apr 04:04:50 04:10:11 89° 102° (ESE) 04:15:30 435.225 FM
AO-27 19 Apr 04:16:27 04:20:46 28° 297° (WNW) 04:25:05 436.795 MHz FM
ITAMSAT 1 19 Apr 04:27:32 04:31:33 23° 299° (WNW) 04:35:33 435.822 SSB
Sapphire 19 Apr 04:27:45 04:29:16 11° 342° (NNW) 04:30:46 437.095 MHz 1200 baud AX-25 AFSK
JAS-1B 19 Apr 04:32:33 04:38:09 53° 101° (E) 04:43:49 435.800 - 435.900 CW/SSB
Oscar 19 19 Apr 04:35:06 04:37:15 13° 306° (NW) 04:39:24 437.125 CW, 437.150 USB
AO-Echo 19 Apr 04:40:36 04:43:57 19° 300° (WNW) 04:47:15 ?
Oscar 16 19 Apr 04:44:40 04:45:15 10° 309° (NW) 04:45:50 437.025 USB, Beacon 2401.1428
TMSAT-1 19 Apr 04:53:37 04:58:43 50° 291° (WNW) 05:03:48 436.925 FM
Uosat F 19 Apr 04:57:10 05:02:12 75° 104° (ESE) 05:07:11 435.120 FM
Gurwin Techsat 1B 19 Apr 05:46:19 05:49:26 16° 304° (NW) 05:52:33 435.225 FM
AO-7 19 Apr 05:49:09 05:57:31 89° 110° (ESE) 06:05:52 29.400 - 29.500 MHz
STRAND 1 19 Apr 05:53:40 05:58:30 45° 68° (ENE) 06:03:21 ?
KITSAT 1 19 Apr 06:02:54 06:09:40 28° 333° (NNW) 06:16:28 435.175 FM
RS-15 19 Apr 06:11:57 06:21:52 38° 108° (ESE) 06:31:29 29.354 - 29.394 USB, Beacon 29.352 USB
JAS-1B 19 Apr 06:24:00 06:28:33 25° 301° (WNW) 06:33:05 435.800 - 435.900 CW/SSB
Hamsat 19 Apr 06:26:29 06:30:20 30° 95° (E) 06:34:11 145.90 MHz
MaSat-1 19 Apr 06:32:04 06:34:46 42° 58° (ENE) 06:37:54 437.345 MHz
Uosat F 19 Apr 06:37:12 06:40:25 18° 302° (WNW) 06:43:39 435.120 FM
JAS-2 19 Apr 06:42:20 06:45:50 17° 91° (E) 06:49:30 435.800 - 435.900 CW/SSB, 435.910 FM
PCSat 19 Apr 06:59:26 07:01:42 12° 22° (NNE) 07:03:57 145.825 MHz
STRAND 1 19 Apr 07:33:35 07:37:52 27° 266° (W) 07:42:11 ?
AO-7 19 Apr 07:42:53 07:49:23 27° 311° (NW) 07:55:52 29.400 - 29.500 MHz
Sapphire 19 Apr 07:57:06 08:01:10 21° 35° (NE) 08:05:13 437.095 MHz 1200 baud AX-25 AFSK
Hamsat 19 Apr 08:02:30 08:06:17 30° 293° (WNW) 08:10:05 145.90 MHz
KITSAT 1 19 Apr 08:02:34 08:08:14 20° 3° (N) 08:13:53 435.175 FM
SO-67 19 Apr 08:08:22 08:11:54 79° 103° (ESE) 08:15:24 435.3500 MHz FM
MaSat-1 19 Apr 08:11:59 08:13:01 11° 250° (WSW) 08:14:05 437.345 MHz
RS-15 19 Apr 08:22:12 08:33:27 73° 312° (NW) 08:44:26 29.354 - 29.394 USB, Beacon 29.352 USB
JAS-2 19 Apr 08:26:10 08:31:27 72° 287° (WNW) 08:37:13 435.800 - 435.900 CW/SSB, 435.910 FM
PCSat 19 Apr 08:41:42 08:46:45 37° 46° (NE) 08:51:47 145.825 MHz
HO-68 19 Apr 08:48:38 08:54:02 22° 90° (E) 08:59:24 435.675 MHz FM
